DW5533 Weather Reports


time (UTC)temp
C
wind
direction
speed
KPH
gust
KPH
rain 1hr
cm
rain 24hr
cm
rain mn
cm
humidity
%
barometer
mb
20260504174537 11 37 0.0 0.0 0.00 0.05 0.03 87 1005.9
20260504173038 10 37 0.0 0.0 0.00 0.05 0.03 87 1006.1
20260504171539 9 37 0.0 0.0 0.00 0.05 0.03 93 1006.0
20260504081528 2 119 0.0 0.0 0.00 0.03 0.00 77 1007.2
20260504060104 1 77 0.0 0.0 0.00 0.03 0.00 89 1007.2
20260504044548 0 59 0.0 0.0 0.00 0.03 0.00 87 1007.3
20260504043049 0 59 0.0 0.0 0.00 0.03 0.00 86 1007.3
20260504041544 1 59 0.0 0.0 0.00 0.03 0.00 87 1007.4
20260504040041 1 59 0.0 0.0 0.00 0.03 0.00 86 1007.3
20260504034552 1 59 0.0 0.0 0.00 0.03 0.03 86 1007.3
20260504033051 1 59 0.0 0.0 0.00 0.03 0.03 86 1007.3
20260504031549 1 59 0.0 0.0 0.00 0.03 0.03 86 1007.4
20260504030049 1 59 0.0 0.0 0.00 0.03 0.03 85 1007.3
20260504024544 1 59 0.0 0.0 0.00 0.03 0.03 86 1007.3
20260504023038 1 59 0.0 0.0 0.00 0.03 0.03 87 1007.3
20260504021537 1 59 0.0 0.0 0.00 0.03 0.03 88 1007.5
20260504020036 1 59 0.0 0.0 0.00 0.03 0.03 88 1007.6
20260504014538 1 59 0.0 0.0 0.00 0.03 0.03 87 1007.5
20260504013038 1 59 0.0 0.0 0.00 0.03 0.03 87 1007.4
20260504011531 2 59 0.0 0.0 0.00 0.03 0.03 86 1007.2
20260504010029 2 59 0.0 0.0 0.00 0.03 0.03 84 1007.3
20260504004528 3 59 0.0 0.0 0.00 0.03 0.03 82 1007.1
20260504003039 3 59 0.0 0.0 0.00 0.03 0.03 80 1006.9
20260504001527 4 59 0.0 0.0 0.00 0.03 0.03 75 1006.8
20260504000027 5 59 0.0 0.0 0.00 0.03 0.03 71 1006.7
20260503234528 6 59 0.0 0.0 0.00 0.03 0.03 70 1006.7
20260503233035 6 59 0.0 0.0 0.00 0.03 0.03 67 1006.6
20260503231526 6 59 0.0 0.0 0.00 0.03 0.03 64 1006.6
20260503230025 6 59 0.0 0.0 0.00 0.03 0.03 64 1006.6
20260503224528 6 59 0.0 0.0 0.00 0.03 0.03 62 1006.5
20260503223023 6 57 0.0 1.6 0.00 0.03 0.03 65 1006.5
20260503221522 6 150 0.0 0.0 0.00 0.03 0.03 64 1006.5
20260503220023 6 131 0.0 4.8 0.00 0.03 0.03 64 1006.4
20260503214520 6 123 0.0 4.8 0.00 0.03 0.03 64 1006.4
20260503213020 6 355 0.0 0.0 0.00 0.03 0.03 68 1006.4
20260503211519 6 279 0.0 4.8 0.00 0.03 0.03 65 1006.5
20260503210020 6 80 0.0 1.6 0.00 0.03 0.03 67 1006.3
20260503204519 6 94 0.0 4.8 0.00 0.03 0.03 67 1006.4
20260503203019 6 345 0.0 1.6 0.00 0.03 0.03 67 1006.3
20260503201518 6 275 0.0 8.0 0.00 0.03 0.03 66 1006.5
20260503200017 6 269 0.0 6.4 0.00 0.03 0.03 60 1006.1
20260503194517 6 82 1.6 11.3 0.03 0.03 0.03 60 1006.3
20260503193015 6 301 0.0 8.0 0.03 0.03 0.03 61 1006.3
20260503191513 6 290 0.0 6.4 0.03 0.03 0.03 59 1006.3
20260503190013 6 218 0.0 9.7 0.03 0.03 0.03 63 1006.4
20260503184517 6 5 0.0 6.4 0.00 0.00 0.00 66 1006.3
20260503183011 6 346 0.0 12.9 0.00 0.00 0.00 65 1006.4
20260503181508 6 132 0.0 9.7 0.00 0.00 0.00 63 1006.2
20260503180006 6 101 0.0 0.0 0.00 0.00 0.00 70 1006.3